Terminal Aerodrome Forecast
Issued by NWS Omaha/Valley, NE

Home | Current Version | Previous Version | Text Only | Print | Product List | Glossary Off
Versions: 1 2 3 4 5 6 7 8 9 10 11 12 13 14 15 16 17 18 19 20 21 22 23 24 25 26 27 28 29 30 31 32 33 34 35 36 37 38 39 40 41 42

000
FTUS43 KOAX 311450 AAA
TAFOFK
TAF AMD
KOFK 311450Z 3115/0112 19010KT P6SM SCT100 BKN150
      TEMPO 3115/3116 5SM -TSRA BKN080CB
     FM311900 19010KT P6SM SCT060 BKN200
      TEMPO 3122/3124 VRB25KT 2SM +TSRA BKN025CB
     FM010000 35006KT 4SM -TSRA BKN040CB
     FM010400 32012KT P6SM BKN250=

USA.gov is the U.S. government's official web portal to all federal, state and local government web resources and services.